Flag for U.S.A. Weather past 2 weeks in Charleston, South Carolina, U.S.A.

Now
41 °F

Overcast.


Feels Like: 35 °F
Forecast: 33 / 46 °F
Wind: 9 mph from North

Location: Charleston Air Force Base Reporting Station

Current Time: Feb 26, 2015 at 6:19:43 PM

Latest Report: Feb 26, 2015 at 5:56 PM


Visibility: 10 mi

Pressure: 30.02 "Hg

Humidity: 82%

Dew point: 36 °F

Location of CharlestonLocation

Historic Weather in Charleston — Graph

°F

Charleston temperature yesterday

Maximum temperature yesterday: 43 °F (at 12:56 PM)
Minimum temperature yesterday: 34 °F (at 12:56 AM)
Average temperature yesterday: 38 °F

Past Weeks' High & Low Weather Summary

 TemperatureHumidityPressure
High74 °F (Feb 22, 11:56 AM)100% (Feb 17, 6:02 AM)30.52 "Hg (Feb 17, 6:02 AM)
Low19 °F (Feb 20, 5:56 AM)16% (Feb 15, 2:56 PM)29.50 "Hg (Feb 26, 2:56 AM)
Average43 °F63%30.10 "Hg
* Reported Feb 11 4:56 PM — Feb 26 4:56 PM, Charleston, Weather by CustomWeather, © 2015

Note: Actual official high and low records may vary slightly from our data, if they occured in-between our weather recording intervals... More about our weather records

Advertising

Charleston weather history for previous 24 hours

 ConditionsComfort  
Time TempWeatherWind HumidityBarometerVisibility
4:56 PM
Thu, Feb 26
42 °FOvercast.14 mph79%29.99 "Hg10 mi
3:56 PM42 °FOvercast.14 mph79%29.95 "Hg10 mi
2:56 PM43 °FMostly cloudy.10 mph79%29.93 "Hg10 mi
1:56 PM43 °FMostly cloudy.13 mph79%29.90 "Hg10 mi
12:56 PM42 °FMostly cloudy.10 mph82%29.89 "Hg10 mi
11:56 AM41 °FMostly cloudy.12 mph86%29.88 "Hg10 mi
10:56 AM40 °FMostly cloudy.14 mph89%29.86 "Hg10 mi
9:56 AM39 °FMostly cloudy.14 mph89%29.83 "Hg10 mi
8:56 AM39 °FLow clouds.13 mph89%29.80 "Hg10 mi
7:56 AM38 °FLow clouds.14 mph93%29.75 "Hg10 mi
6:56 AM37 °FLow clouds.15 mph93%29.71 "Hg10 mi
5:56 AM38 °FLow clouds.16 mph93%29.67 "Hg10 mi
4:56 AM40 °FLight rain. Fog.16 mph93%29.59 "Hg6 mi
3:56 AM41 °FLow clouds.10 mph96%29.51 "Hg10 mi
2:56 AM42 °FLight rain. Mostly cloudy.9 mph96%29.50 "Hg10 mi
1:56 AM41 °FRain. Fog.10 mph96%29.56 "Hg4 mi
12:56 AM44 °FHeavy rain. Fog.6 mph93%29.57 "Hg2 mi
11:56 PM
Wed, Feb 25
40 °FHeavy rain. Fog.15 mph97%29.61 "Hg2 mi
10:56 PM39 °FHeavy rain. Fog.14 mph93%29.67 "Hg2 mi
9:56 PM39 °FRain. Fog.12 mph96%29.75 "Hg2 mi
8:56 PM38 °FRain. Fog.12 mph97%29.78 "Hg2 mi
7:56 PM38 °FRain. Fog.10 mph97%29.85 "Hg1 mi
6:56 PM38 °FThundershowers. Fog.13 mph97%29.84 "Hg1 mi
Weather by CustomWeather, © 2015

See weather overviewHow to use our weather pages